Hauptseite
METAR-TAF:

METAR-TAF

Flughäfen :

Plzeň, Tschechien

Breite: 49-40-31N, Länge: 13-16-29E, Höhe: 362 m

Beobachtung

Neuester Wetterbericht von vor 21 Minuten, um 08:00 UTC
Wind 8 kt aus Südwest
Temperatur 18°C
Luftfeuchtigkeit 77%
Luftdruck 1007 hPa
Sichtweite 10 km oder mehr
Durchbrochene Bewölkung in der Höhe von 1700 ft
Durchbrochene Bewölkung in der Höhe von 2300 ft
Durchbrochene Bewölkung in der Höhe von 16000 ft

METAR: LKLN 240800Z AUTO 23008KT 9999 BKN017 BKN023 BKN160 18/14 Q1007

Zeit: 10:21 (08:21 UTC)


TAF: fehlend

Wetterbeobachtungen und Prognosen von mehr als 4000 Flughäfen (METAR und TAF Bericht).

Die verfügbaren Stationen werden durch gelbe und rote Markierungen auf der Karte dargestellt.

Führen Sie die Maus auf sie, um den Namen der Station zu sehen.

Darauf klicken, um die Beobachtung von Wetterbeobachtungen und Prognosen zu sehen.

Um die Karte zu ändern : klicken Sie auf den grünen Tasten mit einem schwarzen Kreuz Zum Vergrößern, auf den grünen Button mit einem Gedankenstrich zu verkleinern, oder auf die grünen Pfeile für benachbarte Karten.


METAR-TAF: